Total_Precipitation_Accumulation
3.02 3.23 3.17 2.97 3.01 3.09 3.34 3.65 3.75 3.47 3.27 3.07 2.72 2.59 2.65 2.67 2.78 2.60 2.67 2.58 2.12 1.85 1.78 1.76 1.73 1.76 1.86 2.02 2.27 2.57 2.76 2.85 3.01 3.29 3.65 4.00 4.30 4.63
3.26 3.34 3.19 2.92 3.09 3.09 3.20 3.55 3.88 3.96 3.59 3.02 2.77 2.66 2.74 2.54 2.58 2.31 2.35 2.25 1.91 1.72 1.60 1.56 1.49 1.46 1.48 1.56 1.69 1.97 2.16 2.33 2.50 2.62 2.82 3.07 3.36 3.59
3.16 3.08 2.99 3.05 3.24 3.16 3.27 3.43 3.69 3.97 3.63 3.15 2.98 2.94 3.03 2.93 2.75 2.37 2.08 1.95 1.79 1.84 1.67 1.51 1.42 1.39 1.44 1.53 1.59 1.69 1.86 2.06 2.24 2.38 2.55 2.75 2.89 3.04
3.11 3.10 2.95 3.09 3.19 3.17 3.24 3.21 3.31 3.67 3.55 3.26 3.15 3.20 3.13 2.99 2.89 2.68 2.27 2.03 2.03 2.10 1.85 1.67 1.54 1.48 1.43 1.44 1.53 1.61 1.72 1.86 2.01 2.11 2.17 2.22 2.39 2.65
3.07 2.99 2.85 2.98 2.88 2.95 2.99 2.99 2.98 3.12 3.33 3.21 3.06 3.16 3.07 2.95 2.94 2.79 2.66 2.73 2.44 2.23 2.04 1.83 1.66 1.57 1.52 1.45 1.48 1.56 1.67 1.72 1.74 1.88 2.01 2.11 2.17 2.25
2.72 2.65 2.67 2.80 2.89 2.90 2.81 2.78 2.86 3.02 3.13 3.16 3.09 3.18 3.19 3.22 3.15 3.01 3.01 2.94 2.72 2.20 2.08 1.85 1.69 1.55 1.47 1.38 1.41 1.56 1.69 1.75 1.77 1.75 1.82 1.93 2.03 2.13
2.43 2.27 2.30 2.65 2.81 2.79 2.57 2.70 2.80 2.86 2.94 3.07 3.09 3.16 3.26 3.50 3.31 3.06 2.96 3.05 2.87 2.58 2.35 2.03 1.86 1.72 1.64 1.56 1.49 1.49 1.52 1.62 1.73 1.85 1.99 2.10 2.17 2.23
2.17 2.13 2.12 2.20 2.25 2.30 2.32 2.36 2.44 2.52 2.74 3.06 3.13 3.08 3.05 3.16 3.31 3.27 3.22 3.13 2.99 2.84 2.87 2.68 2.31 2.21 2.06 1.86 1.74 1.48 1.31 1.35 1.51 1.65 1.92 2.19 2.45 2.52
2.14 2.22 1.91 1.73 1.93 1.95 2.12 2.12 2.05 2.16 2.32 2.62 2.81 2.80 2.92 2.94 3.27 3.29 3.35 3.35 3.26 3.18 3.19 3.16 2.80 2.47 2.17 2.04 1.95 1.58 1.39 1.32 1.36 1.48 1.61 1.85 2.16 2.49
2.03 2.08 2.02 1.90 1.88 2.02 2.13 2.07 1.91 1.88 1.89 1.87 2.07 2.37 2.66 2.97 3.07 3.14 3.27 3.34 3.31 3.13 3.05 3.07 2.85 2.67 2.31 2.02 1.90 1.68 1.49 1.33 1.29 1.36 1.38 1.45 1.61 1.88
1.97 1.92 1.88 1.81 1.94 1.86 1.80 1.80 1.82 1.80 1.68 1.68 1.75 1.98 2.24 2.36 2.57 2.82 3.04 3.04 2.92 2.71 2.56 2.64 2.65 2.66 2.60 2.34 1.96 1.84 1.61 1.41 1.34 1.34 1.31 1.31 1.39 1.51
1.96 1.91 1.80 1.65 1.69 1.61 1.54 1.67 1.68 1.70 1.79 1.76 1.63 1.63 1.70 1.90 2.05 2.11 2.43 2.66 2.52 2.43 2.18 2.14 2.10 2.28 2.48 2.22 1.92 1.83 1.77 1.64 1.47 1.41 1.38 1.33 1.36 1.27
1.99 1.90 1.83 1.72 1.53 1.50 1.46 1.48 1.56 1.63 1.73 1.80 1.75 1.66 1.76 1.90 1.85 1.82 2.03 2.31 2.39 2.15 1.97 2.15 2.05 2.02 2.01 1.90 1.77 1.64 1.68 1.80 1.76 1.62 1.54 1.50 1.49 1.43
2.13 2.08 1.99 1.81 1.58 1.52 1.42 1.38 1.39 1.32 1.31 1.50 1.57 1.53 1.58 1.69 1.77 1.78 1.87 1.97 2.11 2.06 2.09 2.23 2.23 2.19 2.08 1.89 1.73 1.58 1.50 1.60 1.77 1.98 2.07 2.08 1.90 1.81
2.12 2.22 1.99 1.76 1.59 1.42 1.41 1.44 1.33 1.21 1.28 1.36 1.36 1.37 1.39 1.51 1.76 1.95 2.05 2.13 2.11 1.92 1.78 1.87 2.00 2.20 2.27 2.00 1.71 1.62 1.63 1.61 1.68 1.92 2.08 2.14 2.17 2.18
1.98 2.08 1.96 1.79 1.64 1.50 1.45 1.42 1.32 1.35 1.46 1.43 1.43 1.49 1.54 1.63 1.75 1.85 2.00 2.15 2.13 1.87 1.77 1.79 1.93 2.17 2.21 1.98 1.82 1.70 1.75 1.81 1.73 1.90 2.15 2.23 2.23 2.27
2.15 2.12 2.07 1.93 1.78 1.65 1.60 1.62 1.66 1.66 1.62 1.62 1.66 1.66 1.64 1.66 1.74 1.85 1.97 2.08 2.04 1.83 1.70 1.82 1.95 2.17 2.21 2.17 2.04 1.78 1.77 1.77 1.73 1.90 2.17 2.24 2.22 2.25
2.15 2.04 2.12 2.06 1.92 1.81 1.77 1.77 1.77 1.73 1.71 1.76 1.74 1.72 1.70 1.71 1.76 1.84 1.90 1.91 1.92 1.89 1.83 1.83 2.04 2.26 2.34 2.12 1.79 1.68 1.64 1.58 1.67 1.91 2.08 2.11 1.93 1.86
1.79 1.81 1.93 1.96 1.86 1.80 1.77 1.75 1.69 1.74 1.82 1.79 1.74 1.77 1.79 1.79 1.87 1.93 1.95 1.98 1.92 1.89 1.90 1.97 2.06 2.15 2.15 1.91 1.63 1.45 1.56 1.62 1.72 1.82 1.91 1.92 1.79 1.73
1.55 1.63 1.69 1.76 1.78 1.79 1.81 1.82 1.76 1.77 1.79 1.79 1.78 1.81 1.85 1.84 1.89 1.91 1.88 1.91 2.00 2.02 2.02 1.93 1.94 1.96 1.94 1.94 1.85 1.63 1.50 1.69 1.84 1.80 1.74 1.79 1.76 1.72
1.43 1.48 1.52 1.54 1.59 1.65 1.66 1.72 1.74 1.73 1.74 1.79 1.77 1.79 1.84 1.85 1.89 1.89 1.87 1.93 1.95 1.97 1.96 1.82 1.82 2.05 2.17 2.23 2.05 1.78 1.72 1.76 1.87 1.90 1.89 1.93 1.86 1.79
1.44 1.46 1.43 1.44 1.49 1.56 1.65 1.73 1.76 1.79 1.84 1.84 1.83 1.84 1.88 1.91 1.91 1.94 1.96 1.97 1.96 1.93 1.92 1.94 2.05 2.21 2.29 2.25 2.06 1.97 2.03 2.01 2.01 1.98 1.86 1.84 1.74 1.59
1.41 1.39 1.38 1.38 1.42 1.52 1.61 1.68 1.76 1.83 1.84 1.86 1.93 1.92 1.85 1.83 1.83 1.89 1.91 1.95 2.00 2.05 2.13 2.13 2.10 2.11 2.12 2.16 2.14 2.05 1.98 2.05 2.10 2.04 1.83 1.72 1.58 1.39